Lapse_Rate
3.4 7.6 10.3 9.3 6.6 6.5 6.5 6.5 6.5 6.5 6.5 7.5 7.7 7.1 6.6 7.3 6.5 6.5 9.5 9.7 9.7 9.8 8.7 4.0 1.4 1.7 1.6 1.6 1.9 2.2 2.4 2.4 2.5 2.5 2.4 2.2 2.3 2.6 2.9 3.0 3.2 3.6 4.2 4.5 4.6 4.7 5.1 4.9 4.4
8.2 10.0 9.6 8.2 6.5 6.5 6.5 6.5 6.5 6.5 7.1 7.7 7.6 7.5 6.9 6.5 8.3 8.6 8.9 9.7 10.0 9.9 7.7 6.7 1.2 1.9 2.0 1.9 2.0 2.3 2.5 2.6 2.5 2.5 2.5 2.3 2.5 2.5 2.7 3.0 3.2 3.7 4.1 4.5 4.8 5.0 5.2 4.6 4.3
8.1 9.9 8.2 6.5 6.5 6.5 6.5 6.5 6.5 6.9 7.5 7.4 7.1 8.0 7.5 7.1 8.6 8.8 9.6 9.7 9.9 9.9 9.8 5.7 1.6 1.9 2.3 2.3 2.2 2.2 2.5 2.7 2.7 2.6 2.6 2.5 2.8 2.7 2.7 2.8 3.0 3.5 3.9 4.2 4.8 5.1 4.9 4.6 4.1
9.6 9.1 8.3 6.5 6.5 6.5 6.5 6.5 6.8 6.7 7.4 7.8 7.6 6.5 8.3 9.0 8.7 9.4 9.8 9.9 9.8 9.8 9.7 2.2 1.7 2.0 2.5 2.7 2.7 2.7 2.6 2.7 2.7 2.8 2.7 2.8 2.9 3.0 2.7 2.6 3.0 3.4 3.8 4.1 4.6 4.8 4.5 4.3 4.0
9.5 8.4 6.5 6.5 6.5 6.5 6.5 7.0 7.2 6.5 6.9 7.2 7.6 6.7 7.4 9.0 9.6 9.7 9.7 9.8 9.6 9.7 9.7 5.1 1.5 1.9 2.4 2.8 3.1 3.2 3.0 3.0 3.0 2.9 3.0 3.1 3.2 3.2 3.1 2.8 2.9 3.2 3.7 4.0 4.2 4.5 4.3 4.1 3.9
7.8 7.7 6.5 6.5 6.5 6.5 6.5 7.3 7.2 6.9 7.2 7.4 7.2 7.1 7.5 9.2 9.3 9.5 9.7 9.7 9.8 9.6 9.8 8.8 2.2 2.0 2.2 2.6 2.9 3.1 3.3 3.3 3.1 3.2 3.3 3.4 3.4 3.5 3.4 3.2 3.2 3.2 3.5 3.8 4.0 4.0 4.0 3.9 3.8
6.9 6.5 6.5 6.5 6.5 6.5 6.5 7.6 6.8 6.8 6.9 7.0 7.9 6.5 7.9 8.7 9.4 9.7 9.7 9.8 9.8 9.8 9.6 9.6 9.4 4.7 1.9 2.4 2.6 2.7 3.1 3.4 3.5 3.4 3.4 3.5 3.5 3.7 3.8 3.7 3.6 3.6 3.7 3.7 3.9 4.0 4.0 3.9 3.7
8.0 6.5 6.5 6.5 6.5 6.5 6.8 7.3 7.6 7.3 6.9 8.3 8.4 6.6 6.9 8.7 9.5 9.6 9.7 9.7 9.7 9.6 9.6 9.6 9.5 9.0 9.3 6.5 2.3 2.0 2.3 2.8 3.0 3.1 3.3 3.4 3.5 3.7 3.6 3.7 3.8 3.9 4.0 4.1 4.0 3.9 4.0 4.2 3.7
8.6 6.5 6.5 6.5 6.5 6.5 7.3 6.6 7.8 8.3 7.6 7.9 8.2 8.1 8.6 9.2 9.5 9.3 9.2 9.3 9.5 9.5 9.6 8.7 8.8 9.6 9.5 9.4 7.8 2.5 2.0 2.5 2.9 3.2 3.0 3.5 6.1 7.1 6.2 5.7 5.7 4.2 4.1 4.2 4.2 4.1 4.0 3.9 3.8
6.9 6.5 6.5 6.5 6.6 6.5 7.0 7.0 7.3 7.2 7.1 7.3 7.7 8.5 8.9 9.1 9.0 8.8 8.8 8.9 9.0 9.2 9.5 9.7 9.3 7.8 9.5 9.7 9.5 8.8 8.4 6.3 6.0 6.5 7.4 6.4 7.8 9.1 9.4 8.9 5.4 4.5 4.2 4.1 4.2 4.3 4.1 3.9 7.3
7.0 6.5 6.5 6.8 7.3 7.4 7.0 7.0 7.7 7.0 6.5 7.3 7.2 7.9 8.5 8.7 8.7 8.7 8.9 9.1 9.1 9.4 9.5 9.6 9.1 8.8 9.6 9.7 9.8 9.7 9.6 9.5 9.4 8.9 8.4 8.2 8.2 8.6 8.3 9.1 8.1 7.1 4.1 6.6 5.7 6.2 6.3 7.1 8.8
6.5 6.9 7.1 7.2 7.5 7.3 6.7 7.5 7.0 7.3 7.2 8.1 8.3 8.5 8.6 8.5 8.5 8.7 8.8 9.0 9.1 9.3 9.5 9.5 7.1 4.6 4.6 5.1 9.7 9.8 9.8 9.7 9.8 9.6 8.4 7.9 7.7 8.2 7.6 8.5 8.0 8.1 9.2 8.6 8.6 7.5 8.6 8.6 9.4
6.5 6.6 7.3 7.5 7.5 7.5 7.5 7.0 6.8 7.2 8.0 8.5 8.5 8.5 8.4 8.5 8.7 9.0 9.1 9.2 9.3 9.2 9.3 6.2 4.6 2.8 3.2 3.1 3.2 4.9 7.1 8.7 9.0 8.6 8.3 8.0 8.0 7.2 7.2 7.4 7.0 7.5 7.8 8.0 8.3 8.4 7.8 7.0 7.3
7.1 7.1 7.1 7.4 7.3 7.4 6.8 6.9 7.2 7.4 8.3 8.1 8.2 8.2 8.4 8.5 8.8 9.0 9.1 9.1 9.1 9.3 9.1 5.1 4.5 3.2 3.4 2.6 2.1 2.0 1.5 2.5 4.0 3.4 3.0 3.5 3.9 6.0 6.5 7.1 6.9 6.7 7.1 7.7 7.5 7.4 7.5 7.3 7.3
7.3 6.5 6.5 6.8 7.1 6.6 7.4 6.5 6.5 7.7 8.1 7.8 7.9 8.1 8.4 8.6 8.9 8.8 9.1 9.1 9.3 9.5 9.4 7.9 5.8 4.1 4.0 4.9 3.6 2.6 1.7 1.8 2.3 2.2 2.0 2.5 2.0 1.6 3.0 4.7 5.9 6.2 6.4 6.8 6.9 7.1 7.0 7.5 7.4
6.5 6.5 6.5 6.5 6.7 7.0 6.9 6.5 6.5 7.8 7.7 7.5 7.7 7.9 8.2 8.5 8.8 9.1 9.2 9.3 9.5 9.2 6.6 6.7 6.2 5.8 5.5 4.9 6.0 4.5 2.6 3.2 3.5 4.0 3.2 2.9 3.3 2.7 3.7 4.0 4.0 4.8 4.3 4.3 6.2 6.0 5.1 6.4 6.6
6.5 6.5 6.5 6.5 6.8 6.5 6.5 6.5 6.6 7.7 7.5 7.3 7.6 7.8 8.1 8.3 8.8 9.1 9.3 9.5 9.5 9.6 7.7 6.3 5.0 4.5 5.7 5.7 5.0 5.4 4.6 5.1 5.3 5.4 4.1 4.3 4.2 4.3 4.9 6.4 7.1 6.3 6.2 5.9 5.8 5.5 5.6 6.4 5.7
6.5 6.5 6.5 6.5 6.5 6.5 6.5 6.5 6.5 7.3 7.4 7.2 7.6 7.7 8.0 8.2 8.5 9.0 9.3 9.5 9.6 9.7 9.4 6.6 4.9 3.7 4.3 6.6 6.9 6.6 4.9 6.5 6.6 6.7 5.9 5.6 5.2 4.8 5.4 8.6 8.8 8.1 9.2 9.5 9.2 8.3 8.4 5.9 5.6
6.5 6.5 6.5 6.5 6.5 6.5 6.5 6.5 6.5 7.0 7.1 7.1 7.4 7.5 7.8 8.1 8.8 9.1 9.2 9.4 9.5 9.5 9.4 8.8 6.2 5.0 4.5 4.7 5.9 9.0 6.8 5.9 6.2 6.8 7.0 6.7 5.3 5.0 4.7 4.2 4.8 3.9 4.5 5.5 7.1 8.9 9.1 9.1 8.7
6.5 6.5 6.5 6.5 6.5 6.5 6.5 6.5 6.5 6.4 6.8 7.2 7.3 7.5 7.8 8.0 8.4 8.8 9.1 9.3 9.3 9.4 9.5 9.5 9.5 7.8 6.8 7.8 7.6 7.5 8.5 9.5 7.2 6.3 8.2 7.1 5.9 3.3 2.5 2.1 2.5 2.2 2.6 2.8 3.2 3.8 5.1 7.5 9.3
6.5 6.5 6.5 6.5 6.5 6.5 6.5 6.5 6.5 6.6 7.1 7.5 7.7 7.8 8.0 8.0 8.1 8.5 8.8 9.0 9.2 9.3 9.4 9.6 9.7 9.8 8.6 7.1 9.5 9.4 9.6 9.6 9.5 9.6 6.5 6.1 7.1 4.3 1.9 1.8 2.6 2.4 2.6 2.5 3.0 3.3 3.8 3.7 5.5
6.5 6.5 6.5 6.5 6.5 6.5 6.5 6.5 6.5 6.5 6.5 6.5 7.3 7.6 7.8 8.0 8.4 8.6 8.7 8.9 9.1 9.2 9.5 9.5 9.6 9.6 9.4 7.7 9.1 8.3 9.3 9.1 9.5 9.5 9.7 9.5 6.5 6.2 3.5 2.1 1.8 2.4 3.0 2.7 1.8 3.6 3.7 4.5 4.2
6.5 6.5 6.5 6.5 6.5 6.5 6.5 6.5 6.5 6.5 6.5 6.5 6.9 7.5 7.8 8.2 8.3 8.5 8.6 8.9 9.2 9.4 9.5 9.6 9.6 9.7 9.3 7.2 6.2 6.8 8.0 8.7 9.0 9.1 9.3 9.7 9.5 5.7 3.8 2.7 2.5 1.8 3.2 2.6 1.9 2.9 4.0 5.0 4.9
6.5 6.5 6.5 6.5 6.5 6.5 6.5 6.5 6.5 6.5 6.5 6.5 6.8 7.5 7.8 8.1 8.3 8.6 8.8 9.0 9.1 9.4 9.4 9.5 9.5 9.6 9.6 9.4 8.9 6.7 6.7 5.8 5.8 4.8 4.9 7.6 8.9 8.9 4.7 2.7 2.3 1.7 2.3 3.0 3.7 3.3 4.5 5.0 5.5
6.5 6.5 6.5 6.5 6.5 6.5 6.5 6.5 6.5 6.5 6.5 6.5 6.6 7.3 7.8 8.2 8.2 8.4 8.5 8.6 8.9 9.1 9.3 9.4 9.5 9.4 9.4 9.1 9.0 8.6 8.4 9.0 8.6 6.5 5.8 4.2 6.3 5.7 6.2 4.4 3.3 2.2 2.3 4.9 4.6 4.5 4.4 5.9 6.0
6.5 6.5 6.5 6.5 6.5 6.5 6.5 6.5 6.5 6.5 7.0 7.2 7.4 7.6 7.9 7.9 8.2 8.3 8.6 8.8 9.0 9.1 9.2 9.3 9.4 9.3 9.3 8.9 8.4 7.6 7.2 7.7 9.0 7.0 6.1 5.4 5.5 5.8 5.3 4.3 4.2 2.8 4.3 5.1 5.5 5.0 5.8 5.7 5.4
6.5 6.5 6.5 6.5 6.5 6.5 6.5 6.5 6.5 6.5 6.5 6.9 7.1 7.4 7.5 7.8 8.1 8.3 8.6 8.8 8.9 9.1 8.8 8.7 9.0 9.3 8.8 8.1 8.3 7.8 7.8 7.6 8.5 8.0 7.4 8.0 5.7 6.9 6.2 5.6 4.9 3.9 4.8 5.3 4.8 5.0 5.3 4.8 5.2
6.5 6.5 6.5 6.5 6.5 6.5 6.5 6.5 6.5 6.5 6.5 6.5 6.6 7.1 7.3 7.9 8.1 8.4 8.7 8.8 9.0 9.0 9.1 7.8 7.8 8.2 8.5 7.8 7.2 7.7 7.4 8.0 7.6 8.3 7.5 7.5 6.1 6.5 6.7 5.2 5.6 6.6 6.0 5.1 5.1 4.9 4.9 4.7 4.3
6.5 6.5 6.5 6.5 6.5 6.5 6.5 6.5 6.5 6.5 6.5 6.5 6.7 7.4 7.4 7.8 8.2 8.4 8.7 9.0 9.1 9.2 9.2 8.7 8.0 8.1 8.0 7.6 7.0 7.2 7.5 7.8 7.1 6.6 6.0 7.0 6.5 5.7 5.9 5.9 6.2 7.1 6.6 6.8 6.0 6.0 5.6 5.0 4.6
6.5 6.5 6.5 6.5 6.5 6.5 6.5 6.5 6.5 6.5 6.5 6.8 7.2 7.6 7.8 8.1 8.2 8.6 8.8 8.9 9.0 9.0 9.1 8.9 8.5 8.4 8.6 8.3 7.8 8.3 8.5 8.8 8.3 7.3 6.0 6.3 5.7 5.3 5.7 7.6 8.5 8.5 7.3 6.7 7.4 7.0 6.2 5.5 4.8
Wind_Speed
19 15 7 7 7 7 9 6 4 0 4 6 4 6 9 19 13 5 12 9 5 9 11 11 8 10 12 13 13 14 14 14 14 13 12 13 14 14 13 12 11 11 12 13 11 10 9 10 10
13 10 8 8 8 11 5 11 5 5 4 3 3 2 1 15 13 14 10 11 9 8 10 11 9 9 11 11 12 13 13 14 15 13 13 12 13 15 15 15 14 12 10 11 10 10 9 9 9
14 9 9 7 11 10 7 7 8 4 2 2 2 8 6 6 12 7 9 8 8 7 8 13 9 7 9 12 13 14 13 15 16 14 13 12 13 13 14 15 16 14 13 13 13 10 7 8 8
6 6 6 9 15 8 8 6 1 2 3 3 1 10 10 10 4 7 7 7 8 7 9 13 11 7 7 8 10 12 14 15 16 16 15 14 14 14 13 14 15 15 16 15 14 12 10 9 8
8 7 10 11 4 4 1 5 2 2 2 5 5 8 13 12 10 10 9 9 9 8 7 9 9 8 7 7 7 8 9 11 13 13 13 13 14 15 14 15 15 15 16 18 16 14 12 11 9
7 5 10 11 10 5 2 2 0 2 1 6 5 4 6 12 12 9 8 8 8 8 6 7 10 6 5 5 5 5 5 7 8 9 11 11 12 14 14 15 16 16 16 16 17 17 15 13 12
11 9 13 8 2 6 3 0 1 2 3 8 4 6 6 14 12 10 8 7 8 9 7 5 4 8 8 6 6 6 7 8 8 9 10 11 12 14 14 14 15 16 16 17 17 17 16 15 13
7 7 14 6 4 9 5 3 2 2 11 4 5 1 5 13 11 8 5 5 8 8 9 7 4 3 5 10 14 13 14 13 13 12 12 12 11 13 15 15 16 16 17 19 18 18 17 16 14
8 9 10 3 4 9 4 5 7 1 5 0 1 5 9 10 8 9 5 3 7 7 9 6 8 8 7 9 10 13 11 10 10 11 11 12 14 17 19 18 17 21 21 19 18 18 17 16 14
8 9 7 8 5 5 5 4 5 4 3 5 2 3 7 6 7 8 8 9 10 11 11 10 10 9 11 11 8 10 11 11 13 14 13 13 15 16 18 19 27 20 21 19 18 18 18 15 16
5 12 8 5 4 4 5 6 1 7 7 2 6 8 6 7 8 9 10 11 12 12 11 15 14 14 10 9 9 8 10 11 12 12 10 10 12 13 14 14 13 17 19 17 18 17 17 18 17
8 8 5 1 4 6 7 8 10 9 8 5 3 3 5 7 9 11 12 12 12 12 13 14 15 14 14 16 9 8 8 8 6 8 9 8 5 8 7 7 12 14 15 13 15 11 15 17 18
11 10 4 6 7 10 8 11 12 10 3 3 1 4 5 10 10 10 11 11 13 13 14 15 15 14 12 12 11 11 11 7 9 8 7 10 6 7 6 8 9 9 12 10 9 10 9 10 12
5 7 8 9 10 11 11 12 4 7 4 4 4 3 12 10 10 10 11 12 13 13 15 15 16 14 14 11 12 8 12 14 13 12 14 17 13 7 6 7 7 8 11 13 9 10 10 10 11
8 11 13 14 9 5 7 14 11 7 6 4 4 2 12 9 9 10 11 11 12 12 13 13 13 14 13 13 10 10 12 12 7 9 14 14 12 10 8 7 7 6 12 14 11 11 10 10 10
10 11 11 10 9 7 6 10 16 9 9 9 6 3 8 7 8 10 10 10 11 11 13 13 12 14 12 11 8 7 11 9 8 9 11 13 13 12 7 5 5 8 8 7 7 8 9 11 11
12 11 13 10 10 4 8 8 2 7 6 9 8 1 5 5 7 9 10 10 12 13 13 13 13 14 13 9 7 8 8 6 8 9 12 12 13 13 10 5 4 7 5 4 5 5 7 9 10
9 13 8 10 12 9 11 15 14 8 8 4 8 3 4 5 7 7 9 10 10 12 12 13 12 14 13 9 5 5 5 5 7 8 10 13 13 15 12 7 8 9 7 8 8 8 8 7 9
10 11 13 12 7 5 14 18 12 10 2 7 4 1 3 4 5 5 6 8 9 10 11 12 13 13 10 9 9 7 6 5 6 6 10 12 13 15 14 8 11 10 10 11 11 11 12 11 8
12 14 15 14 7 5 16 17 14 5 7 5 4 6 3 2 3 5 7 8 10 11 12 12 13 13 11 8 8 6 6 4 5 7 9 12 13 13 11 9 8 9 8 9 11 11 10 11 10
15 16 14 13 7 12 19 19 25 11 7 8 7 2 2 2 4 5 6 9 10 11 11 11 12 12 12 14 9 8 5 4 7 6 6 8 13 11 12 12 9 9 8 7 9 9 11 9 11
15 14 10 10 10 9 6 9 2 16 14 14 11 7 3 2 4 5 8 8 9 8 7 8 10 12 11 13 11 12 8 8 7 7 8 8 11 12 12 12 11 10 8 8 8 9 9 8 9
13 2 7 10 11 13 17 11 13 13 17 14 13 9 5 4 3 5 6 6 7 9 9 9 9 9 11 11 12 10 11 8 8 8 12 10 8 11 12 14 11 10 8 10 10 10 10 8 8
2 7 9 10 11 12 19 18 11 11 12 13 10 9 8 6 3 3 3 4 6 8 9 10 11 11 11 11 10 9 10 9 8 9 8 9 9 8 12 14 12 10 10 11 9 10 11 10 9
13 11 6 10 9 10 3 7 12 8 9 4 10 8 8 7 4 2 2 3 5 6 8 8 9 10 11 11 11 11 11 10 9 8 7 9 8 8 11 11 10 9 10 10 10 10 10 10 9
19 15 8 10 10 10 8 7 3 9 11 8 5 8 9 7 5 4 2 3 4 6 9 9 9 9 10 10 10 10 11 7 7 8 7 7 7 8 12 10 12 11 12 11 10 9 8 9 9
12 16 14 16 16 12 12 16 10 9 12 10 10 10 10 9 8 6 3 2 3 6 6 7 9 9 9 9 8 9 9 9 9 10 8 6 8 9 11 12 11 12 12 11 11 8 9 10 9
12 8 7 8 7 17 15 16 10 16 13 12 13 13 11 10 9 7 3 2 3 5 5 6 7 8 8 8 8 7 9 9 9 9 10 11 10 10 12 13 12 12 12 12 11 9 10 10 8
12 11 10 10 14 12 14 12 6 11 12 14 14 14 15 13 11 7 5 4 4 4 4 4 5 5 6 6 7 8 8 9 9 10 10 11 11 12 12 13 13 13 13 12 10 10 11 11 11
18 21 19 11 17 12 13 17 2 7 7 11 14 16 17 15 12 9 6 5 4 4 4 4 3 4 4 5 6 7 7 8 8 9 9 9 10 10 11 11 11 12 13 12 11 10 10 11 12
Wind_Direction
280 242 269 265 245 231 245 130 351 72 183 10 334 315 6 39 16 35 66 45 64 118 137 169 160 146 135 132 140 148 155 164 169 176 180 177 169 168 166 166 169 177 171 171 172 169 159 143 133
304 297 247 274 255 249 168 107 133 47 36 352 126 259 308 66 14 61 39 34 58 109 138 166 154 156 145 140 140 152 161 170 174 178 182 182 177 174 172 173 176 184 182 181 183 177 164 146 144
266 274 273 241 248 276 42 123 98 95 50 20 172 67 15 3 33 30 45 44 71 93 135 112 149 167 165 159 157 159 168 174 175 178 182 183 183 181 182 180 179 183 186 188 192 189 168 158 154
290 219 236 257 266 69 30 100 91 119 114 30 352 90 101 49 44 37 47 54 65 63 85 126 154 179 188 183 176 171 176 181 177 180 181 184 186 187 190 191 189 189 193 193 198 198 188 181 179
244 261 264 236 261 74 116 70 16 60 15 3 304 112 85 47 45 31 33 39 31 47 57 127 159 181 199 207 205 197 185 188 188 186 185 189 190 191 195 199 200 200 204 202 201 207 201 201 201
261 261 254 244 137 143 154 103 219 311 263 47 52 130 84 61 30 25 34 31 37 34 31 100 157 181 205 223 228 233 226 208 199 202 203 201 202 202 200 203 208 210 212 214 208 211 210 207 210
255 271 271 325 77 188 126 263 144 294 218 80 352 257 117 53 7 5 34 28 30 30 27 28 13 167 193 219 223 221 231 229 223 218 213 214 216 218 215 211 213 218 219 222 221 220 217 214 213
280 281 270 207 175 119 113 214 120 324 57 351 344 216 43 15 347 340 16 21 41 19 12 5 342 301 253 209 213 212 211 218 218 217 218 220 224 226 224 219 219 220 224 225 224 227 226 224 217
257 257 248 126 210 96 129 246 127 2 256 68 302 46 20 350 358 356 349 5 12 8 8 356 339 311 275 263 209 204 221 228 239 242 232 225 230 222 223 222 229 213 226 228 227 227 227 230 232
243 241 10 31 37 111 170 232 354 299 233 284 235 68 12 339 3 352 347 347 358 354 342 357 8 331 301 272 238 228 224 222 225 229 233 224 239 234 240 222 206 210 220 228 230 230 229 228 237
212 261 42 117 12 318 293 261 215 265 261 182 341 311 332 346 0 360 351 357 357 346 5 5 353 343 316 290 275 243 241 223 218 227 239 229 239 244 251 248 209 213 208 224 217 226 229 230 230
256 239 277 355 190 281 266 297 281 279 276 332 288 347 302 355 11 357 360 356 358 359 9 4 359 348 348 339 295 246 257 238 235 227 237 253 244 239 242 248 234 229 233 214 221 222 231 228 232
246 259 213 256 254 264 279 267 267 262 61 182 152 260 353 22 10 4 6 12 359 6 10 4 359 359 351 350 352 348 337 322 303 308 269 264 256 258 262 253 252 253 252 237 232 222 225 232 242
31 293 258 249 257 258 270 260 232 201 169 226 245 291 60 36 15 9 13 16 11 12 10 3 4 3 353 12 2 5 11 14 24 31 20 24 9 333 293 286 270 260 244 245 241 231 227 228 228
263 258 248 234 239 234 255 249 214 152 200 255 260 342 75 44 28 26 18 14 15 16 7 13 7 4 0 2 17 14 11 16 18 28 34 24 20 9 355 343 337 329 313 272 260 255 249 239 230
246 236 258 171 179 159 242 283 149 170 225 283 309 356 95 68 38 29 21 21 19 23 15 14 9 7 6 8 7 30 20 12 16 26 34 19 20 7 351 334 323 330 336 329 309 301 275 246 244
212 255 210 180 195 236 232 285 131 181 259 281 294 91 98 90 63 38 25 20 17 18 17 14 14 10 0 12 12 16 35 25 12 25 25 7 16 1 346 315 310 344 303 264 272 288 292 297 278
268 207 226 255 157 211 247 262 266 256 253 299 285 108 115 95 56 40 27 21 23 20 20 16 15 14 5 360 18 22 9 16 28 33 18 12 11 3 348 333 345 331 318 313 320 314 297 270 280
291 278 273 275 263 236 257 262 262 252 155 227 225 162 110 86 83 51 45 41 24 29 20 20 17 18 14 19 360 357 5 14 359 5 25 9 8 10 3 1 353 355 342 337 326 316 303 293 278
238 250 255 261 263 294 265 267 258 192 211 262 236 180 155 124 79 61 40 40 38 30 24 25 23 20 14 9 8 354 352 9 22 357 6 9 11 17 8 359 349 349 338 337 342 339 319 305 301
235 248 258 269 264 251 264 267 250 146 176 180 202 177 148 39 31 48 50 34 24 22 13 22 19 13 16 4 4 355 23 10 7 13 23 1 7 11 13 2 352 342 343 336 336 335 330 317 310
252 237 240 261 253 263 109 279 181 181 190 197 191 202 176 134 96 54 30 24 14 13 16 12 14 10 21 13 6 13 353 352 356 359 360 356 10 5 8 358 1 346 337 335 339 330 319 311 310
259 147 226 243 250 266 262 264 268 237 181 199 195 182 171 100 64 51 38 17 16 15 16 15 4 23 21 15 19 6 4 356 344 1 339 346 358 6 12 355 355 356 338 338 335 325 318 311 304
224 207 215 233 251 256 250 241 272 221 192 191 170 166 161 154 113 74 57 26 28 21 12 6 5 24 20 17 21 18 5 3 354 1 354 347 345 348 360 353 355 358 345 337 327 324 313 311 302
194 205 233 220 210 246 149 268 255 129 151 139 168 180 157 156 147 138 87 47 28 16 13 5 4 14 17 13 14 15 9 4 4 7 2 356 351 355 346 352 353 355 350 333 331 325 320 311 304
208 213 231 248 247 276 121 232 210 93 124 130 157 167 154 163 175 151 90 23 31 23 25 4 3 14 14 16 17 18 15 9 359 15 10 5 1 352 354 349 353 2 346 339 337 335 329 328 323
193 221 249 273 277 271 254 259 134 143 148 167 174 173 169 184 182 171 174 88 38 37 36 9 4 12 15 12 18 24 21 20 13 16 17 6 24 3 2 358 355 5 355 349 350 351 347 347 336
234 222 212 229 255 245 255 254 277 177 185 189 188 188 179 188 185 193 171 114 69 66 50 23 16 12 10 19 27 30 31 31 26 24 21 18 28 16 8 10 5 2 3 5 5 2 4 1 360
199 223 226 245 237 261 271 272 65 167 191 195 197 193 178 190 190 190 181 151 106 91 76 46 28 20 19 27 31 33 35 35 36 30 27 19 25 21 14 10 5 8 11 11 15 12 14 17 12
231 212 226 223 238 258 267 269 165 164 190 195 196 190 175 191 192 190 168 152 118 96 68 58 49 33 33 45 43 43 42 41 42 40 33 24 23 26 15 10 12 18 17 10 18 21 21 24 21